Temp
14 15 16 17 18 19 20 20 21 22 23 24 24 25 25 26 26 22 29 31 31 30 27 28 30 31 32 35 35 36 37 36 36 36 35 35 34 34 34 32 32 32 33 31 28
10 13 16 17 18 19 18 19 20 21 23 23 24 25 25 25 22 29 31 29 29 30 29 31 33 33 35 36 36 36 37 37 38 38 37 35 35 34 33 32 32 31 31 29 28
9 11 13 15 17 18 18 18 19 21 22 23 24 24 24 23 27 34 29 30 29 28 32 33 34 35 36 37 37 38 37 38 38 38 38 36 35 35 34 33 33 32 30 30 28
11 13 14 14 16 17 17 18 18 20 22 23 23 24 23 19 31 31 29 28 30 27 31 33 35 35 36 36 38 37 38 38 39 37 37 37 37 35 34 35 35 33 31 30 30
12 14 15 16 16 17 17 18 19 20 22 22 23 22 19 28 31 31 29 29 26 28 31 34 34 35 36 38 38 37 38 38 39 37 38 37 36 35 34 34 34 33 31 31 31
8 11 14 16 17 17 17 18 20 21 22 22 21 20 22 29 32 29 28 27 29 29 32 34 35 37 37 38 38 39 38 38 38 37 37 36 36 35 35 34 33 32 31 31 31
8 9 12 14 16 17 18 19 20 22 22 23 18 17 25 30 30 29 28 30 30 31 34 34 35 36 37 37 38 38 37 36 37 37 36 37 34 34 35 34 33 32 32 32 31
10 11 12 13 15 17 19 21 21 22 22 20 18 18 28 30 29 29 29 30 29 30 32 34 34 36 37 38 37 37 38 37 37 36 36 36 36 35 35 34 33 32 32 31 31
9 11 12 14 16 16 19 20 19 18 18 18 18 22 31 28 29 31 31 32 31 31 31 33 34 35 36 36 37 38 37 38 36 36 35 35 37 36 35 35 33 32 32 32 31
8 10 12 13 16 18 20 19 16 16 15 16 19 24 30 33 32 31 31 32 33 33 32 33 34 35 36 37 36 37 37 38 37 36 36 36 36 35 35 35 34 33 33 32 32
10 11 12 13 15 17 19 20 23 24 21 30 32 32 32 32 31 33 31 32 34 33 33 34 33 34 36 37 38 39 38 38 39 38 36 37 36 36 34 35 35 34 33 33 33
9 10 11 14 16 16 16 25 22 21 25 30 30 30 31 32 30 33 32 33 33 33 34 33 33 36 37 37 37 38 38 38 39 37 37 37 36 37 36 34 35 35 34 33 33
10 9 10 15 16 16 17 22 19 20 25 30 30 30 31 31 30 32 33 33 33 33 34 34 35 36 36 36 36 37 38 38 38 36 37 37 36 36 37 36 35 35 35 34 34
10 10 10 12 17 16 22 19 18 19 27 32 30 31 29 31 30 32 34 33 33 33 34 34 36 35 35 35 37 37 39 39 38 37 35 37 36 38 38 36 35 35 35 35 34
8 11 10 9 11 18 20 18 18 21 28 31 31 31 32 31 33 32 33 34 33 33 34 33 34 34 34 35 37 37 39 38 38 37 37 36 36 37 38 37 37 36 36 35 35
8 9 9 13 12 15 16 17 20 26 27 31 32 31 31 32 32 31 32 34 35 34 34 34 35 35 35 36 37 38 38 38 38 38 36 37 36 37 38 37 39 38 37 36 36
8 10 11 10 19 15 16 22 26 27 30 31 31 32 33 33 32 32 31 32 32 31 32 33 34 35 36 35 37 37 36 34 34 35 35 37 37 37 39 40 40 40 39 37 36
8 11 12 12 13 13 16 24 25 29 30 31 31 32 32 33 33 32 32 32 33 33 33 32 32 34 35 36 36 36 37 35 33 34 35 37 35 37 39 40 40 40 40 38 37
8 13 14 14 12 13 21 24 27 28 30 31 31 31 32 32 32 33 32 33 34 34 32 33 33 35 35 36 37 36 36 38 37 37 37 37 36 38 39 39 39 40 39 39 38
8 12 16 14 12 15 21 23 28 29 30 30 30 32 32 33 31 32 33 34 34 34 35 34 32 35 35 36 37 37 37 35 37 34 34 36 37 37 38 39 40 39 39 39 38
11 16 15 13 13 19 22 24 27 28 28 29 30 31 31 32 32 32 33 33 34 34 34 34 33 34 35 34 35 35 35 36 37 36 35 35 36 39 38 39 40 41 40 40 39
12 16 14 14 18 22 23 25 23 27 28 28 29 30 30 31 31 31 31 33 34 34 33 34 34 32 33 36 36 37 35 36 35 34 36 36 37 41 40 40 40 41 42 41 40
13 16 16 15 18 21 23 23 23 24 27 27 28 29 30 30 29 30 31 32 33 33 33 34 33 31 32 35 35 35 36 36 36 37 36 35 36 40 40 39 39 39 40 39 38
13 16 19 17 19 18 19 19 21 24 25 27 28 29 28 28 30 29 30 31 32 32 28 31 33 32 33 33 35 33 34 35 36 36 35 36 37 38 39 38 39 40 40 39 36
13 16 14 17 18 16 17 18 19 21 23 26 25 27 28 27 28 29 29 31 31 28 31 32 30 33 33 34 35 35 35 34 34 35 35 36 36 38 38 39 39 40 40 39 36
10 12 13 13 14 15 16 17 18 20 22 22 24 26 27 27 28 28 29 29 30 32 31 32 30 31 32 34 34 34 35 35 35 35 35 36 36 39 39 39 39 39 40 39 36
10 10 10 12 13 14 16 17 17 17 19 21 21 21 23 26 27 28 29 29 30 30 30 30 30 30 30 33 34 32 34 35 36 36 36 35 36 38 38 38 39 39 39 39 37
Height
810 807 804 800 798 795 791 788 785 783 779 776 773 769 767 763 760 758 754 753 752 752 756 760 761 759 759 753 751 746 756 764 762 762 763 758 766 765 766 778 780 780 781 790 803
810 806 803 799 796 793 790 787 783 780 777 775 772 768 765 761 757 751 748 744 747 749 754 755 755 756 753 750 750 753 752 753 743 744 752 757 760 766 774 779 782 786 786 795 803
810 806 802 799 796 792 788 785 781 778 775 772 770 767 764 761 755 738 742 739 744 748 751 752 750 752 751 744 745 742 755 740 742 740 739 753 760 759 768 780 776 785 789 796 802
807 804 800 797 794 791 786 782 778 775 772 769 767 764 762 763 761 739 741 743 744 748 750 748 747 752 752 752 737 753 738 738 735 739 742 750 750 762 765 766 766 774 785 793 799
807 803 799 794 791 788 783 778 774 771 768 765 763 762 763 756 743 739 739 741 743 746 746 744 746 746 750 739 738 747 738 733 731 737 739 742 754 760 765 765 766 775 785 791 796
807 802 797 793 789 785 780 774 770 766 763 760 758 760 762 756 735 737 738 740 741 743 741 741 738 735 737 737 740 730 734 734 732 737 741 750 755 760 761 762 769 777 783 788 793
807 801 795 790 786 781 775 770 765 761 757 755 754 757 755 740 734 736 736 737 737 737 735 736 736 736 732 738 727 732 745 742 738 740 747 743 768 767 754 763 771 776 780 785 790
804 799 794 789 783 776 770 765 759 755 752 751 752 757 743 730 731 731 732 733 734 735 736 735 737 734 731 723 732 742 737 753 741 743 745 748 764 755 755 762 770 773 777 782 786
804 798 791 785 779 773 765 759 755 753 751 752 756 753 733 727 727 724 725 726 731 733 735 734 736 735 733 742 744 737 751 745 753 739 749 754 754 748 751 757 765 771 775 779 784
802 796 789 783 776 768 761 756 754 754 755 756 755 753 726 719 720 722 723 724 726 729 733 735 737 740 737 737 756 747 748 735 744 746 746 754 752 751 751 754 759 767 771 775 778
799 793 787 781 773 766 759 758 755 750 750 728 719 715 716 717 720 717 720 722 720 725 735 730 744 743 732 724 721 721 731 737 727 726 743 745 749 748 752 753 755 760 765 768 771
797 791 784 777 770 764 763 756 759 762 744 721 718 714 714 715 721 712 716 720 721 730 722 735 740 723 719 720 725 723 731 733 722 729 738 738 746 740 742 749 748 753 757 761 764
795 790 783 773 767 766 764 761 762 761 746 711 707 707 706 710 713 707 708 709 717 723 722 729 722 715 721 724 731 726 728 727 730 735 734 736 749 742 733 737 741 743 745 750 755
793 788 783 773 769 768 762 764 762 761 742 705 706 700 704 701 710 696 695 704 710 717 715 721 706 717 726 730 720 733 711 716 722 740 760 735 764 733 724 733 736 739 740 741 745
793 786 781 781 777 768 764 763 762 760 753 698 697 692 693 700 692 693 690 696 708 709 710 717 714 721 726 720 711 721 703 718 720 731 737 739 756 733 720 730 726 724 727 730 734
790 784 778 776 775 765 762 762 760 754 745 701 689 695 698 693 690 693 695 691 692 703 703 704 696 703 709 705 705 705 713 714 718 726 751 731 743 738 723 723 712 709 714 721 727
784 778 774 773 764 763 763 757 751 739 699 698 695 687 687 689 691 693 702 703 707 722 720 711 704 698 694 711 703 710 723 753 762 753 751 720 734 729 704 697 699 696 700 709 716
777 769 764 762 760 760 762 752 744 701 699 685 687 685 694 682 685 686 694 702 692 695 702 720 727 701 691 696 706 710 711 731 764 754 744 719 741 720 697 690 686 686 686 696 706
774 765 759 755 756 756 751 738 711 701 690 690 685 693 688 682 685 683 686 687 682 682 704 703 709 683 685 687 686 703 712 694 714 709 726 715 717 701 690 692 687 685 686 689 694
775 765 753 754 751 753 739 718 695 689 684 684 691 674 684 677 687 682 678 668 673 670 670 685 710 683 682 684 680 682 686 720 704 737 746 725 717 716 701 693 681 685 683 681 685
773 759 749 750 750 741 717 701 695 686 689 689 684 679 677 676 678 674 671 666 660 664 670 676 694 689 684 691 690 692 696 694 694 703 725 734 716 681 691 684 680 672 673 671 676
774 755 750 751 738 715 706 694 696 688 683 685 678 673 675 674 679 679 678 668 656 658 676 671 682 701 689 666 667 671 687 686 704 717 698 705 700 658 664 671 669 666 659 659 664
769 754 746 750 731 711 700 700 694 696 680 681 678 674 670 675 686 675 670 660 662 665 666 663 681 701 697 679 671 679 673 676 679 683 691 712 704 659 661 668 665 667 661 661 666
772 747 732 737 728 728 714 711 701 688 683 672 669 666 673 675 668 677 672 662 660 661 664 665 668 681 686 680 666 684 680 672 675 683 690 682 682 669 664 668 662 657 656 658 665
770 743 748 732 721 728 726 718 712 699 684 672 675 667 667 676 672 672 670 662 661 664 664 667 682 667 665 658 655 660 666 672 675 671 680 675 674 666 660 660 658 651 648 654 663
772 759 752 745 740 733 725 718 709 699 692 686 678 666 664 668 666 669 666 666 668 657 661 659 678 668 669 657 657 662 652 656 658 662 663 667 665 644 644 648 651 649 646 649 656
769 768 766 745 737 731 718 711 711 711 703 692 686 685 679 666 660 656 655 655 654 659 661 663 668 672 680 654 652 668 652 644 641 642 650 662 650 644 643 643 642 641 640 642 644
Wind_Speed
23 22 21 20 19 18 20 21 22 22 20 20 21 21 21 22 22 8 10 9 9 12 16 14 12 11 12 8 8 4 6 4 7 3 11 14 11 7 7 11 7 8 7 23 25
24 24 24 22 19 20 21 21 22 22 21 22 21 22 21 21 14 17 13 14 19 19 22 20 15 15 9 10 6 9 7 5 3 1 11 16 12 14 10 11 10 11 9 26 26
24 24 25 25 23 21 22 23 23 22 22 22 22 22 20 14 12 3 5 7 18 22 17 19 14 15 14 9 10 8 11 6 3 2 8 18 12 12 10 12 12 15 15 24 26
25 25 25 25 24 25 26 25 25 24 23 22 22 21 13 4 6 4 5 5 6 19 14 19 15 16 13 14 11 10 9 9 8 5 11 17 15 12 10 4 13 14 18 24 22
26 26 26 26 26 26 28 28 27 25 22 22 22 16 4 8 14 9 10 6 12 20 20 19 20 18 16 11 10 12 11 8 9 7 12 14 15 9 11 8 12 15 19 23 20
27 28 28 29 29 30 30 31 29 27 24 21 19 5 5 16 5 5 8 8 9 22 23 22 14 20 10 11 11 0 6 8 5 10 12 13 13 11 12 11 13 17 20 21 22
27 29 29 29 30 31 32 32 31 29 25 19 10 6 8 18 6 9 9 8 10 21 18 26 20 17 14 10 11 7 7 5 9 13 10 11 12 14 13 13 13 17 18 20 20
31 32 33 34 34 32 32 32 31 23 13 5 6 6 8 4 5 14 14 14 9 16 21 16 26 15 16 4 8 14 12 10 11 14 8 16 13 16 14 16 14 16 17 19 21
30 33 34 35 33 37 33 26 16 4 3 10 5 7 7 4 8 7 13 11 11 12 12 15 18 16 16 15 15 14 14 13 11 14 7 15 4 15 15 16 15 15 17 19 19
32 35 37 37 36 36 25 14 4 2 3 3 5 6 7 6 10 2 8 12 11 15 11 16 12 15 15 17 18 18 18 14 13 15 12 16 6 5 14 16 16 16 17 19 20
33 36 38 39 39 30 18 5 5 6 9 10 4 12 4 7 5 6 10 15 11 18 14 19 18 21 23 22 20 17 16 14 15 14 16 15 13 11 10 15 16 16 18 19 20
34 36 39 39 37 11 12 6 4 5 12 16 23 24 23 11 9 15 14 15 15 18 18 16 23 22 22 21 23 20 18 17 13 9 15 13 15 13 14 17 18 19 19 19 19
34 37 41 39 21 6 7 3 5 9 8 9 11 11 10 20 18 19 22 19 19 21 21 19 18 21 20 21 24 23 21 18 15 11 15 11 15 17 15 16 17 19 20 21 21
35 36 40 43 3 16 2 3 10 7 6 6 8 7 8 7 9 21 28 22 17 23 21 21 20 23 19 24 23 24 23 19 16 14 13 16 13 14 17 17 20 21 21 22 23
38 35 38 26 17 7 2 9 12 4 6 8 8 9 9 9 3 9 24 24 22 19 21 20 22 22 23 24 25 24 21 19 19 17 19 15 11 13 4 14 20 24 24 24 23
40 40 41 13 11 15 13 11 3 7 9 6 8 12 11 13 6 5 16 22 17 20 17 23 15 20 23 22 23 21 19 16 17 16 18 22 15 15 12 15 17 18 23 24 23
43 41 32 13 5 4 8 6 6 11 4 9 10 13 10 8 12 13 20 24 19 20 20 20 22 15 18 23 24 22 18 12 15 15 15 18 20 16 12 10 15 12 19 24 23
46 37 13 14 8 6 8 7 14 5 19 3 5 12 13 9 9 16 18 22 25 22 14 18 20 26 16 27 25 27 26 15 24 16 14 21 16 18 19 18 21 11 12 20 24
42 19 13 6 8 10 8 15 11 16 11 16 13 14 17 13 7 13 20 22 25 24 23 19 24 23 22 19 26 26 26 25 24 20 17 17 14 23 16 16 15 14 14 18 23
23 19 12 6 8 12 9 25 21 16 10 12 19 14 18 18 13 12 17 18 22 26 22 13 13 24 23 20 26 27 22 24 20 25 22 20 20 12 19 17 17 13 16 18 21
14 6 6 2 11 7 15 22 23 23 18 15 20 17 13 12 15 12 8 9 16 21 22 21 12 14 22 26 25 20 19 21 23 22 19 18 19 16 15 14 13 12 14 16 18
7 6 4 4 7 9 15 17 8 18 23 22 16 19 18 14 15 13 12 9 5 15 25 22 14 16 19 22 26 24 25 24 17 26 19 22 18 19 18 18 21 19 11 10 14
5 7 3 7 7 13 15 14 15 23 22 24 27 20 18 18 20 17 16 12 11 9 15 20 19 14 19 18 18 22 28 28 26 22 26 20 19 18 12 12 12 13 13 8 10
5 4 5 7 10 12 16 13 20 18 20 23 21 22 23 23 19 11 12 12 11 16 4 7 18 24 17 22 21 25 24 26 27 21 22 27 21 21 22 18 16 14 14 12 10
5 4 2 6 6 6 12 14 16 15 15 16 22 21 21 21 21 21 17 12 9 9 6 16 15 15 21 21 19 23 28 29 30 29 28 22 29 23 23 18 19 19 18 11 12
4 5 4 10 13 14 12 14 14 15 12 15 17 18 22 20 19 18 19 17 17 14 18 15 14 16 22 21 22 27 27 29 30 30 29 30 33 24 24 24 23 22 19 16 16
5 8 5 9 8 8 11 11 8 10 11 16 15 12 11 9 9 9 11 13 13 15 15 16 14 12 18 22 17 21 27 29 28 32 28 28 26 26 30 23 25 24 21 17 18
Wind_Direction
356 355 355 354 350 346 343 340 338 333 328 328 328 328 332 328 325 304 266 252 223 210 163 172 190 192 197 225 241 279 253 151 103 274 129 152 155 158 111 139 177 151 153 142 151
355 353 352 350 348 344 341 337 334 331 326 325 323 323 329 328 317 282 277 245 212 194 172 179 185 182 208 218 207 232 271 89 80 24 155 163 167 159 169 159 172 157 119 145 157
353 351 351 348 343 340 337 335 332 326 324 321 319 319 325 333 283 205 57 98 196 194 195 196 196 200 230 225 208 209 260 78 231 287 181 165 169 166 174 179 177 172 156 157 164
351 351 350 347 343 340 338 333 328 322 319 317 315 315 323 309 289 108 190 60 190 186 210 203 197 208 227 221 219 254 242 276 291 160 185 171 160 175 173 94 165 167 164 165 172
350 350 348 345 342 339 336 330 325 319 312 311 308 312 325 249 256 271 263 274 189 190 207 204 207 213 233 233 226 243 270 276 264 197 186 169 171 162 176 131 151 159 166 173 177
347 347 349 344 339 337 333 327 321 315 306 301 298 285 247 266 283 194 164 162 195 200 208 211 218 216 256 239 230 328 267 276 232 174 172 182 168 170 176 154 163 167 174 180 183
345 346 347 341 338 336 330 323 318 311 302 290 271 179 247 256 258 208 201 235 224 206 211 214 220 204 221 230 224 215 228 200 176 163 169 185 174 209 149 168 167 181 182 183 189
349 349 347 342 341 336 329 322 315 313 299 267 191 193 259 258 235 234 234 232 216 211 221 226 214 245 240 219 194 214 230 200 162 171 156 197 177 194 162 176 180 183 183 187 192
348 347 345 342 341 335 327 326 323 343 97 121 160 236 264 193 223 207 202 201 191 181 204 191 202 225 208 218 212 209 224 211 159 195 161 203 212 169 177 186 180 185 185 189 193
345 347 345 343 342 334 327 329 307 76 118 220 256 242 245 214 155 210 184 175 168 173 162 191 200 204 222 211 214 207 227 184 189 191 194 196 192 149 187 200 193 189 192 195 198
345 346 343 341 341 332 337 307 227 192 206 256 292 257 150 153 198 212 180 181 174 179 188 190 201 208 206 214 228 224 208 209 209 160 202 208 219 177 194 211 209 198 200 201 206
346 347 344 340 338 342 345 312 48 349 294 258 251 261 256 261 256 218 187 189 191 197 200 182 214 211 223 216 228 239 223 219 184 167 217 209 229 227 200 213 213 208 207 209 208
344 347 344 340 337 4 330 104 31 327 265 271 233 248 230 206 222 228 195 210 198 206 198 207 206 217 213 219 223 224 229 219 204 185 226 245 231 234 218 217 215 218 213 210 211
342 344 343 341 341 336 301 213 312 316 272 202 201 189 173 179 220 226 209 205 214 213 200 220 219 205 208 225 217 225 223 234 213 192 222 205 248 229 218 213 219 212 214 214 211
340 337 338 345 297 294 334 316 311 222 281 119 151 144 160 207 24 171 201 201 210 213 204 206 210 198 216 215 217 230 222 225 244 211 239 179 240 260 208 228 221 218 211 214 211
335 333 332 338 267 268 288 307 243 231 240 186 162 182 183 208 205 133 189 212 224 215 217 229 199 220 221 217 223 225 249 221 233 231 230 233 212 237 217 232 241 224 213 210 209
330 327 316 263 261 298 304 253 223 236 103 188 196 192 204 176 195 173 186 194 200 201 204 215 204 208 216 214 211 214 209 204 218 224 238 211 230 232 255 221 245 261 207 208 205
328 327 304 249 251 256 244 220 232 237 215 135 210 192 224 186 212 193 189 202 211 211 209 208 212 210 193 216 202 213 213 218 214 220 219 231 234 232 239 259 259 233 233 199 203
330 318 285 265 220 204 217 217 223 232 232 239 210 224 224 206 254 206 212 209 207 216 223 208 227 198 213 216 219 202 219 227 242 225 242 224 212 242 248 254 245 236 216 199 204
321 310 267 235 193 193 221 237 228 255 250 236 227 217 227 208 213 203 204 216 219 211 224 221 235 224 197 212 218 229 209 220 231 238 223 237 237 221 220 229 238 214 215 209 204
308 298 44 212 177 211 228 225 233 239 250 244 233 241 228 234 228 211 228 188 215 197 217 228 218 206 209 208 208 207 229 218 234 227 243 234 234 217 240 257 267 232 219 219 204
305 287 58 179 242 227 240 242 279 249 227 243 254 256 239 229 225 221 220 221 187 225 202 214 214 233 215 213 219 211 214 215 223 226 237 248 245 223 221 232 241 249 252 225 215
290 281 273 242 255 246 244 246 249 255 235 233 231 237 237 237 238 248 233 238 259 240 224 209 226 214 231 216 202 231 224 221 227 238 229 226 233 247 194 227 250 243 260 249 234
283 294 211 207 259 280 290 287 265 250 256 252 244 231 228 229 230 241 218 221 231 232 312 306 228 219 222 222 218 211 224 237 233 232 234 243 242 227 224 233 249 252 257 257 224
255 260 35 286 264 320 300 292 287 276 257 247 241 244 222 222 220 218 235 234 217 168 208 218 238 232 234 256 243 232 219 219 234 238 240 240 236 232 243 241 245 260 261 244 227
285 309 336 288 279 276 265 259 271 274 268 261 238 227 236 233 232 229 226 233 239 232 232 218 242 248 243 241 247 252 236 231 228 234 240 241 248 247 228 237 249 249 257 245 231
261 270 265 280 259 272 266 265 278 342 284 258 297 313 291 278 301 289 283 281 270 238 229 231 223 219 240 232 244 242 244 248 237 225 232 234 236 235 243 248 236 239 241 239 229